Location: ??????
(55.7522°N, 37.6156°E)
Time: 11:33:00
(UTC+00:00)

USA 229 DEB - Pass Details

Date: 14 December 2025
Orbit: 844 x 1364 km, 63.4° (Epoch: 10 January)

Event Time Altitude Azimuth Distance (km) Brightness Sun altitude
Exits shadow 00:34:04 36° 50° (NE) 1,755 5.0 -42.5°
Drops below altitude 10° 00:38:59 10° 78° (ENE) 3,171 6.8 -41.8°
Sets 00:42:09 0° 85° (E) 4,230 7.6 -41.4°
